Location: Monrovia
(34.7865°N, 86.7139°W)
Time: 15:21:01
(UTC+00:00)

Spot 2 Rocket - Pass Details

Date: 14 July 2020
Orbit: 757 x 772 km, 98.6° (Epoch: 12 August)

Event Time Altitude Azimuth Distance (km) Brightness Sun altitude
Exits shadow 02:19:25 21° 118° (ESE) 1,689 4.7 -14.2°
Maximum altitude 02:22:02 33° 70° (ENE) 1,272 4.4 -14.6°
Drops below altitude 10° 02:26:34 10° 7° (N) 2,321 6.4 -15.3°
Sets 02:29:04 0° 359° (N) 3,253 7.4 -15.7°
